GW4718 Weather Reports


Display with metric or nautical units.
time (UTC)temp
F
wind
direction
speed
MPH
gust
MPH
rain 1hr
in
rain 24hr
in
rain mn
in
humidity
%
barometer
mb
20260510091230 47 49 0.0 2.0 0.00 0.00 0.00 92 1015.3
20260510090726 47 179 0.0 4.0 0.00 0.00 0.00 92 1015.3
20260510090224 46 109 3.0 3.0 0.00 0.00 0.00 92 1015.2
20260510085718 46 269 0.0 2.0 0.00 0.00 0.00 92 1015.2
20260510085213 46 98 2.0 3.0 0.00 0.00 0.00 92 1015.3
20260510084709 46 164 0.0 4.0 0.00 0.00 0.00 93 1015.3
20260510084207 46 199 0.0 4.0 0.00 0.00 0.00 93 1015.5
20260510083703 46 252 1.0 1.0 0.00 0.00 0.00 93 1015.4
20260510083201 46 109 3.0 3.0 0.00 0.00 0.00 92 1015.0
20260510082656 46 59 1.0 1.0 0.00 0.00 0.00 93 1015.2
20260510082152 46 40 3.0 3.0 0.00 0.00 0.00 93 1015.2
20260510081647 46 15 1.0 1.0 0.00 0.00 0.00 93 1015.1
20260510081143 46 81 2.0 2.0 0.00 0.00 0.00 93 1015.2
20260510080642 46 215 0.0 2.0 0.00 0.00 0.00 93 1015.1
20260510080140 46 98 1.0 2.0 0.00 0.00 0.00 92 1015.0
20260510075636 46 68 1.0 2.0 0.00 0.00 0.00 91 1015.2
20260510075134 46 128 0.0 1.0 0.00 0.00 0.00 91 1015.1
20260510074630 47 119 0.0 2.0 0.00 0.00 0.00 91 1014.8
20260510074126 47 355 0.0 1.0 0.00 0.00 0.00 91 1014.7
20260510073622 47 151 0.0 2.0 0.00 0.00 0.00 92 1015.0
20260510073119 46 187 1.0 4.0 0.00 0.00 0.00 92 1014.8
20260510072616 45 16 2.0 4.0 0.00 0.00 0.00 93 1015.0
20260510072112 45 350 0.0 2.0 0.00 0.00 0.00 94 1015.0
20260510071608 45 234 0.0 2.0 0.00 0.00 0.00 93 1015.0
20260510071107 46 42 0.0 1.0 0.00 0.00 0.00 92 1015.0
20260510070603 46 113 0.0 1.0 0.00 0.00 0.00 91 1014.8
20260510070100 46 54 2.0 3.0 0.00 0.00 0.00 92 1014.8
20260510065556 47 218 0.0 0.0 0.00 0.00 0.00 90 1014.7
20260510065052 47 49 2.0 3.0 0.00 0.00 0.00 90 1014.8
20260510064549 46 56 0.0 1.0 0.00 0.00 0.00 92 1014.8
20260510064045 46 55 2.0 2.0 0.00 0.00 0.00 91 1014.8
20260510063543 46 312 1.0 3.0 0.00 0.00 0.00 91 1014.7
20260510063040 46 38 1.0 1.0 0.00 0.00 0.00 90 1014.8
20260510062535 46 53 2.0 3.0 0.00 0.00 0.00 91 1015.0
20260510062031 46 55 2.0 3.0 0.00 0.00 0.00 91 1015.0
20260510061528 47 281 1.0 2.0 0.00 0.00 0.00 90 1015.1
20260510061024 46 72 0.0 2.0 0.00 0.00 0.00 90 1015.0
20260510060521 47 44 0.0 0.0 0.00 0.00 0.00 89 1014.8
20260510060017 47 130 0.0 2.0 0.00 0.00 0.00 89 1014.7
20260510055513 46 76 0.0 1.0 0.00 0.00 0.00 91 1014.8
20260510055011 46 79 3.0 3.0 0.00 0.00 0.00 91 1014.8
20260510054507 46 97 3.0 3.0 0.00 0.00 0.00 91 1015.1
20260510054002 46 216 0.0 1.0 0.00 0.00 0.00 90 1015.1
20260510053457 47 132 0.0 2.0 0.00 0.00 0.00 90 1015.3
20260510052953 46 250 1.0 3.0 0.00 0.00 0.00 90 1015.3
20260510052450 46 44 0.0 2.0 0.00 0.00 0.00 91 1015.2
20260510051946 45 49 0.0 1.0 0.00 0.00 0.00 92 1015.5
20260510051442 46 96 0.0 0.0 0.00 0.00 0.00 91 1015.4
20260510050938 46 96 0.0 1.0 0.00 0.00 0.00 91 1015.5
20260510050435 45 62 0.0 0.0 0.00 0.00 0.00 91 1015.6
20260510045933 46 62 0.0 0.0 0.00 0.00 0.00 91 1015.6
20260510045430 46 62 0.0 0.0 0.00 0.00 0.00 91 1015.5
20260510044926 46 60 0.0 0.0 0.00 0.00 0.00 91 1015.6
20260510044423 46 70 0.0 0.0 0.00 0.00 0.00 91 1015.4
20260510043920 46 96 0.0 0.0 0.00 0.00 0.00 90 1015.4
20260510043416 46 95 0.0 0.0 0.00 0.00 0.00 90 1015.3
20260510042914 46 119 0.0 0.0 0.00 0.00 0.00 89 1015.2
20260510042410 46 115 0.0 0.0 0.00 0.00 0.00 89 1015.2
20260510041906 46 84 0.0 0.0 0.00 0.00 0.00 90 1015.0
20260510041403 47 83 0.0 0.0 0.00 0.00 0.00 89 1014.8
20260510040901 47 82 0.0 1.0 0.00 0.00 0.00 88 1014.8
20260510040358 46 125 0.0 0.0 0.00 0.00 0.00 90 1015.0
20260510035853 46 103 0.0 0.0 0.00 0.00 0.00 90 1014.7
20260510035349 46 103 1.0 1.0 0.00 0.00 0.00 90 1015.3
20260510034844 46 104 0.0 0.0 0.00 0.00 0.00 89 1015.2
20260510034343 46 104 0.0 0.0 0.00 0.00 0.00 88 1015.1
20260510033839 47 114 0.0 0.0 0.00 0.00 0.00 88 1015.1
20260510033336 47 120 0.0 0.0 0.00 0.00 0.00 87 1015.1
20260510032832 47 123 1.0 1.0 0.00 0.00 0.00 87 1015.0
20260510032329 47 121 0.0 0.0 0.00 0.00 0.00 87 1014.8
20260510031825 48 129 0.0 0.0 0.00 0.00 0.00 87 1015.0
20260510031320 47 169 0.0 0.0 0.00 0.00 0.00 87 1015.1
20260510030815 48 87 0.0 1.0 0.00 0.00 0.00 86 1014.8
20260510030311 47 86 0.0 0.0 0.00 0.00 0.00 88 1014.8
20260510025809 47 131 0.0 0.0 0.00 0.00 0.00 87 1014.8
20260510025306 47 117 0.0 0.0 0.00 0.00 0.00 87 1014.8
20260510024803 48 145 0.0 0.0 0.00 0.00 0.00 86 1015.0
20260510024300 48 158 0.0 0.0 0.00 0.00 0.00 86 1015.0
20260510023755 48 81 0.0 0.0 0.00 0.00 0.00 85 1014.6
20260510023247 49 72 0.0 0.0 0.00 0.00 0.00 84 1014.7
20260510022744 49 108 0.0 2.0 0.00 0.00 0.00 84 1014.7
20260510022243 49 223 1.0 2.0 0.00 0.00 0.00 84 1014.6
20260510021742 49 131 0.0 0.0 0.00 0.00 0.00 83 1014.6
20260510021241 48 109 0.0 1.0 0.00 0.00 0.00 85 1014.6
20260510020737 49 81 0.0 0.0 0.00 0.00 0.00 85 1014.3
20260510020236 49 175 0.0 0.0 0.00 0.00 0.00 83 1014.3
20260510015733 49 106 0.0 0.0 0.00 0.00 0.00 83 1014.1
20260510015229 50 261 1.0 1.0 0.00 0.00 0.00 81 1014.2
20260510014724 50 95 0.0 0.0 0.00 0.00 0.00 82 1014.1
20260510014222 51 106 0.0 0.0 0.00 0.00 0.00 80 1013.9
20260510013717 49 116 0.0 0.0 0.00 0.00 0.00 83 1014.0
20260510013214 50 82 0.0 0.0 0.00 0.00 0.00 81 1013.7
20260510012713 51 92 0.0 0.0 0.00 0.00 0.00 80 1013.8
20260510012209 51 178 0.0 0.0 0.00 0.00 0.00 79 1013.6
20260510011704 52 112 0.0 0.0 0.00 0.00 0.00 78 1013.4
20260510011159 52 119 0.0 0.0 0.00 0.00 0.00 77 1013.5
20260510010656 52 58 0.0 0.0 0.00 0.00 0.00 77 1013.4
20260510010148 53 110 0.0 0.0 0.00 0.00 0.00 76 1013.4
20260510005644 53 271 0.0 0.0 0.00 0.00 0.00 76 1013.4
20260510005141 53 122 0.0 0.0 0.00 0.00 0.00 76 1013.2
20260510004639 53 125 0.0 0.0 0.00 0.00 0.00 75 1013.0
20260510004137 55 117 0.0 1.0 0.00 0.00 0.00 72 1012.8
20260510003634 55 204 0.0 1.0 0.00 0.00 0.00 72 1012.8
20260510003130 56 119 0.0 1.0 0.00 0.00 0.00 70 1012.7
20260510002629 56 93 0.0 1.0 0.00 0.00 0.00 68 1012.6
20260510002127 56 117 0.0 0.0 0.00 0.00 0.00 71 1012.6
20260510001623 56 145 0.0 0.0 0.00 0.00 0.00 68 1012.5
20260510001122 56 108 1.0 2.0 0.00 0.00 0.00 68 1012.3
20260510000622 58 141 0.0 0.0 0.00 0.00 0.00 68 1012.4
20260510000120 58 112 0.0 0.0 0.00 0.00 0.00 65 1012.3
20260509235616 59 137 0.0 0.0 0.00 0.00 0.00 62 1012.3
20260509235113 59 116 0.0 1.0 0.00 0.00 0.00 63 1012.3
20260509234609 60 159 0.0 0.0 0.00 0.00 0.00 59 1012.1
20260509234107 60 130 0.0 2.0 0.00 0.00 0.00 60 1012.1
20260509233604 62 209 1.0 2.0 0.00 0.00 0.00 58 1012.1
20260509233101 63 219 0.0 2.0 0.00 0.00 0.00 55 1012.2
20260509232557 64 290 1.0 3.0 0.00 0.00 0.00 50 1012.1
20260509232055 64 207 3.0 3.0 0.00 0.00 0.00 51 1012.2
20260509231551 66 290 3.0 4.0 0.00 0.00 0.00 50 1012.3
20260509231049 67 248 3.0 6.0 0.00 0.00 0.00 45 1012.4
20260509230545 67 203 4.0 7.0 0.00 0.00 0.00 45 1012.3
20260509230043 68 230 2.0 4.0 0.00 0.00 0.00 46 1012.4
20260509225538 68 137 2.0 7.0 0.00 0.00 0.00 47 1012.3
20260509225033 68 134 4.0 8.0 0.00 0.00 0.00 44 1012.5
20260509224529 67 177 6.0 8.0 0.00 0.00 0.00 45 1012.3
20260509224026 67 99 5.0 15.0 0.00 0.00 0.00 45 1012.1
20260509223523 68 187 1.0 3.0 0.00 0.00 0.00 47 1012.4
20260509223021 67 216 2.0 6.0 0.00 0.00 0.00 49 1012.3
20260509222517 67 206 5.0 8.0 0.00 0.00 0.00 49 1012.2
20260509222012 67 185 5.0 7.0 0.00 0.00 0.00 46 1012.2
20260509221509 68 214 3.0 6.0 0.00 0.00 0.00 47 1012.4
20260509221004 67 269 4.0 4.0 0.00 0.00 0.00 48 1012.3
20260509220501 67 217 7.0 10.0 0.00 0.00 0.00 47 1012.2
20260509215957 68 185 6.0 7.0 0.00 0.00 0.00 45 1012.0
20260509215452 68 189 3.0 3.0 0.00 0.00 0.00 44 1012.2
20260509214950 67 195 2.0 3.0 0.00 0.00 0.00 43 1011.9
20260509214447 68 283 1.0 7.0 0.00 0.00 0.00 46 1012.0
20260509213944 67 195 5.0 9.0 0.00 0.00 0.00 47 1012.1
20260509213440 69 264 4.0 6.0 0.00 0.00 0.00 44 1012.0
20260509212937 69 168 3.0 6.0 0.00 0.00 0.00 41 1011.8
20260509212435 68 230 4.0 4.0 0.00 0.00 0.00 43 1011.6
20260509211930 69 278 2.0 6.0 0.00 0.00 0.00 41 1011.6
20260509211426 70 258 5.0 7.0 0.00 0.00 0.00 41 1011.7
20260509210923 69 170 5.0 8.0 0.00 0.00 0.00 42 1011.4
20260509210420 69 214 4.0 6.0 0.00 0.00 0.00 44 1011.2
20260509205915 71 203 1.0 7.0 0.00 0.00 0.00 43 1011.5
20260509205415 69 224 6.0 8.0 0.00 0.00 0.00 41 1011.2
20260509204911 68 209 2.0 10.0 0.00 0.00 0.00 43 1011.2
20260509204408 67 233 5.0 11.0 0.00 0.00 0.00 40 1011.1
20260509203904 67 168 7.0 9.0 0.00 0.00 0.00 40 1010.9
20260509203401 68 195 2.0 6.0 0.00 0.00 0.00 43 1011.0
20260509202858 68 193 7.0 8.0 0.00 0.00 0.00 40 1010.9
20260509202354 68 211 4.0 11.0 0.00 0.00 0.00 40 1010.9
20260509201849 69 176 6.0 14.0 0.00 0.00 0.00 39 1010.9
20260509201345 69 278 6.0 9.0 0.00 0.00 0.00 37 1010.9
20260509200842 70 170 10.0 13.0 0.00 0.00 0.00 39 1010.9
20260509200336 70 233 3.0 4.0 0.00 0.00 0.00 39 1010.9
20260509195834 70 156 8.0 13.0 0.00 0.00 0.00 38 1011.1
20260509195333 69 183 11.0 15.0 0.00 0.00 0.00 39 1010.9
20260509194828 69 217 4.0 8.0 0.00 0.00 0.00 39 1010.9
20260509194324 69 241 6.0 10.0 0.00 0.00 0.00 42 1011.1
20260509193821 69 203 3.0 8.0 0.00 0.00 0.00 41 1011.0
20260509193321 69 206 8.0 13.0 0.00 0.00 0.00 40 1010.9
20260509192817 68 225 3.0 6.0 0.00 0.00 0.00 43 1011.0
20260509192313 68 288 3.0 9.0 0.00 0.00 0.00 40 1010.9
20260509191808 68 215 3.0 6.0 0.00 0.00 0.00 46 1011.0
20260509191305 69 144 7.0 11.0 0.00 0.00 0.00 40 1011.4
20260509190800 70 215 2.0 4.0 0.00 0.00 0.00 45 1011.4
20260509190258 69 58 0.0 4.0 0.00 0.00 0.00 40 1011.1
20260509185755 67 227 2.0 6.0 0.00 0.00 0.00 47 1011.4
20260509185251 67 206 4.0 8.0 0.00 0.00 0.00 49 1011.4
20260509184749 67 209 2.0 7.0 0.00 0.00 0.00 41 1011.4
20260509184246 67 229 4.0 7.0 0.00 0.00 0.00 45 1011.2
20260509183742 69 179 6.0 7.0 0.00 0.00 0.00 47 1011.2
20260509183238 70 263 5.0 10.0 0.00 0.00 0.00 44 1011.4
20260509182734 69 272 3.0 13.0 0.00 0.00 0.00 43 1011.4
20260509182231 68 6 3.0 9.0 0.00 0.00 0.00 45 1011.5
20260509181728 70 222 6.0 13.0 0.00 0.00 0.00 48 1011.4
20260509181225 69 156 3.0 4.0 0.00 0.00 0.00 45 1011.7
20260509180722 67 241 1.0 7.0 0.00 0.00 0.00 51 1011.8
20260509180219 67 307 2.0 3.0 0.00 0.00 0.00 46 1011.9
20260509175715 67 181 4.0 7.0 0.00 0.00 0.00 45 1011.8
20260509175212 67 234 3.0 7.0 0.00 0.00 0.00 51 1011.8
20260509174707 67 220 5.0 10.0 0.00 0.00 0.00 49 1011.8
20260509174202 67 271 2.0 6.0 0.00 0.00 0.00 52 1012.1
20260509173659 67 181 3.0 3.0 0.00 0.00 0.00 53 1012.1
20260509173155 66 214 1.0 3.0 0.00 0.00 0.00 49 1012.2
20260509172651 65 348 2.0 2.0 0.00 0.00 0.00 53 1012.3
20260509172147 65 356 1.0 2.0 0.00 0.00 0.00 50 1012.4
20260509171643 65 22 1.0 2.0 0.00 0.00 0.00 51 1012.4
20260509171140 65 279 2.0 3.0 0.00 0.00 0.00 50 1012.4
20260509170636 64 355 1.0 2.0 0.00 0.00 0.00 55 1012.6
20260509170132 65 324 0.0 0.0 0.00 0.00 0.00 49 1012.8
20260509165631 64 104 0.0 2.0 0.00 0.00 0.00 50 1012.6
20260509165127 63 13 1.0 2.0 0.00 0.00 0.00 57 1012.5
20260509164623 62 36 2.0 4.0 0.00 0.00 0.00 54 1012.6
20260509164119 62 25 2.0 3.0 0.00 0.00 0.00 53 1012.6
20260509163617 62 48 4.0 4.0 0.00 0.00 0.00 54 1012.6
20260509163112 62 57 1.0 4.0 0.00 0.00 0.00 54 1012.7
20260509162610 61 45 0.0 0.0 0.00 0.00 0.00 55 1012.8
20260509162105 61 73 2.0 3.0 0.00 0.00 0.00 57 1012.8
20260509161602 61 44 1.0 1.0 0.00 0.00 0.00 58 1012.7
20260509161056 61 76 1.0 2.0 0.00 0.00 0.00 57 1012.9
20260509160553 61 24 3.0 3.0 0.00 0.00 0.00 56 1012.6
20260509160048 61 13 2.0 3.0 0.00 0.00 0.00 56 1012.7
20260509155544 62 2 2.0 2.0 0.00 0.00 0.00 55 1012.6
20260509155041 62 12 2.0 3.0 0.00 0.00 0.00 54 1012.6
20260509154537 63 3 0.0 2.0 0.00 0.00 0.00 52 1012.5
20260509154035 64 25 0.0 2.0 0.00 0.00 0.00 52 1012.3
20260509153531 64 335 3.0 6.0 0.00 0.00 0.00 53 1012.3
20260509153028 64 267 1.0 3.0 0.00 0.00 0.00 51 1012.5
20260509152524 64 277 1.0 3.0 0.00 0.00 0.00 49 1012.4
20260509152021 64 128 1.0 2.0 0.00 0.00 0.00 48 1012.3
20260509151518 64 202 3.0 4.0 0.00 0.00 0.00 52 1012.3
20260509151016 64 273 1.0 3.0 0.00 0.00 0.00 52 1012.1
20260509150513 64 309 0.0 1.0 0.00 0.00 0.00 50 1012.2
20260509150011 64 325 2.0 3.0 0.00 0.00 0.00 51 1012.3
20260509145507 64 322 1.0 2.0 0.00 0.00 0.00 49 1012.3
20260509145001 63 24 1.0 1.0 0.00 0.00 0.00 49 1012.4
20260509144459 63 107 0.0 3.0 0.00 0.00 0.00 52 1012.5
20260509143955 63 284 0.0 4.0 0.00 0.00 0.00 50 1012.5
20260509143452 62 236 0.0 1.0 0.00 0.00 0.00 53 1012.5
20260509142949 62 246 4.0 6.0 0.00 0.00 0.00 51 1012.4
20260509142446 62 243 2.0 6.0 0.00 0.00 0.00 53 1012.6
20260509141941 64 36 0.0 4.0 0.00 0.00 0.00 49 1012.1
20260509141438 65 236 2.0 2.0 0.00 0.00 0.00 51 1012.3
20260509140935 62 282 0.0 1.0 0.00 0.00 0.00 51 1012.5
20260509140431 62 175 5.0 6.0 0.00 0.00 0.00 52 1012.6
20260509135930 62 218 4.0 6.0 0.00 0.00 0.00 59 1012.8
20260509135427 62 302 2.0 4.0 0.00 0.00 0.00 50 1012.7
20260509134924 60 197 1.0 3.0 0.00 0.00 0.00 56 1013.0
20260509134421 60 199 3.0 6.0 0.00 0.00 0.00 59 1013.0
20260509133919 60 180 2.0 3.0 0.00 0.00 0.00 56 1013.0
20260509133415 59 259 1.0 3.0 0.00 0.00 0.00 65 1013.2
20260509132914 58 187 0.0 4.0 0.00 0.00 0.00 61 1013.4
20260509132411 58 243 2.0 3.0 0.00 0.00 0.00 65 1013.4
20260509131908 57 220 3.0 6.0 0.00 0.00 0.00 64 1013.2
20260509131405 56 247 2.0 4.0 0.00 0.00 0.00 68 1013.4
20260509130902 56 191 2.0 6.0 0.00 0.00 0.00 66 1013.5
20260509130357 55 323 0.0 1.0 0.00 0.00 0.00 71 1013.6
20260509125854 55 101 0.0 1.0 0.00 0.00 0.00 71 1013.4
20260509125350 54 82 1.0 2.0 0.00 0.00 0.00 73 1013.7
20260509124847 54 53 0.0 2.0 0.00 0.00 0.00 73 1013.5
20260509124344 54 231 0.0 1.0 0.00 0.00 0.00 72 1013.4
20260509123842 53 53 0.0 0.0 0.00 0.00 0.00 73 1013.3
20260509123339 53 53 0.0 0.0 0.00 0.00 0.00 75 1013.5
20260509122835 52 53 0.0 0.0 0.00 0.00 0.00 73 1013.5
20260509122332 52 53 0.0 0.0 0.00 0.00 0.00 75 1013.4
20260509121829 51 54 0.0 0.0 0.00 0.00 0.00 75 1013.4
20260509121326 51 56 1.0 1.0 0.00 0.00 0.00 76 1013.4
20260509120824 51 54 0.0 0.0 0.00 0.00 0.00 77 1013.4
20260509120321 50 46 0.0 0.0 0.00 0.00 0.00 80 1013.4
20260509115819 50 46 0.0 0.0 0.00 0.00 0.00 80 1013.4
20260509115316 50 44 1.0 2.0 0.00 0.00 0.00 79 1013.5
20260509114814 49 41 1.0 2.0 0.00 0.00 0.00 80 1013.6
20260509114312 49 37 0.0 1.0 0.00 0.00 0.00 81 1013.7
20260509113811 49 36 0.0 1.0 0.00 0.00 0.00 81 1013.7
20260509113307 49 13 0.0 0.0 0.00 0.00 0.00 82 1013.9
20260509112805 48 54 0.0 2.0 0.00 0.00 0.00 83 1013.6
20260509112306 48 38 1.0 2.0 0.00 0.00 0.00 81 1013.8
20260509111759 48 53 1.0 1.0 0.00 0.00 0.00 80 1013.4
20260509111255 48 71 0.0 0.0 0.00 0.00 0.00 81 1013.6
20260509110753 48 72 0.0 0.0 0.00 0.00 0.00 81 1013.6
20260509110249 47 74 0.0 0.0 0.00 0.00 0.00 82 1013.5
20260509105748 47 75 0.0 2.0 0.00 0.00 0.00 81 1013.6
20260509105245 47 73 0.0 0.0 0.00 0.00 0.00 83 1013.5
20260509104741 47 86 0.0 0.0 0.00 0.00 0.00 81 1013.8
20260509104238 46 103 0.0 0.0 0.00 0.00 0.00 81 1013.6
20260509103737 46 104 0.0 0.0 0.00 0.00 0.00 81 1013.6
20260509103233 46 100 0.0 0.0 0.00 0.00 0.00 83 1013.5
20260509102732 46 101 0.0 0.0 0.00 0.00 0.00 81 1013.5
20260509102228 46 90 0.0 0.0 0.00 0.00 0.00 82 1013.6
20260509101725 45 90 0.0 0.0 0.00 0.00 0.00 82 1013.6
20260509101222 45 90 0.0 0.0 0.00 0.00 0.00 82 1013.6
20260509100719 45 91 0.0 0.0 0.00 0.00 0.00 82 1013.4
20260509100216 45 93 0.0 0.0 0.00 0.00 0.00 82 1013.4
20260509095713 45 93 0.0 0.0 0.00 0.00 0.00 82 1013.4
20260509095210 45 93 0.0 0.0 0.00 0.00 0.00 82 1013.6
20260509094707 46 93 0.0 0.0 0.00 0.00 0.00 82 1013.6
20260509094203 46 93 0.0 0.0 0.00 0.00 0.00 81 1013.5
20260509093702 46 93 0.0 0.0 0.00 0.00 0.00 81 1013.6
20260509093158 46 93 0.0 0.0 0.00 0.00 0.00 81 1013.5
20260509092656 46 93 0.0 0.0 0.00 0.00 0.00 81 1013.7
20260509092155 46 93 0.0 0.0 0.00 0.00 0.00 80 1013.8
20260509091653 46 93 0.0 0.0 0.00 0.00 0.00 79 1013.9